map of BGO home
BGO - Airport
Location
City:  Bergen, Norway
Name:Flesland
ICAO:ENBR
IATA:BGO

Details
Type:Airport (Aerodrome, Airfield)
Use:Public/Civil, International (customs port of entry)
Latitude:6017'36"N (60.293386)
Longitude:513'05"E (5.218142)
Datum:WGS 1984
Elevation:170 ft (52 m)
Variation:0.93E (WMM2015 magnetic declination)
0.18 annual change
Runways:1
Longest:9810 × 148 ft (2990 × 45 m), paved

Time
Time Zone:UTC+1 (DST+2)
Local Time:

Weather
METAR:ENBR 220450Z 34011KT 9999 FEW025 SCT065 09/06 Q1016 NOSIG RMK WIND 1200FT 34019KT
TAF:ENBR 212300Z 2200/2224 33015KT 9999 FEW018 SCT030 PROB40 2202/2206 BKN014
TEMPO 2206/2216 34018G30KT
TEMPO 2218/2224 RADZ BKN012

Related Locations
Nearby:
Farthest:NZTB: 11301 mi / 18188 km
Terra Nova Bay [Mario Zucchelli Station], AQ

Find:

   beyond  
but within

Other Information
Maps:
NOTAMs:
Links:
Sources:

  
  • flag of Norway
  

Airport Diagram

Airport diagram for BGO

Larger airport diagram (OBSOLETE) from NGA

Sectional Chart

Flight Planning
at skyvector.com

Satellite Image

Google Maps Satellite view

 

Copyright © 2004-2018 Karl L. Swartz. All rights reserved.
The Great Circle Mapper name and logo are trademarks of the Great Circle Mapper.
All other trademarks mentioned herein belong to their respective owners.
Please see credits for attibutions and further copyright information.

  Follow gcmap on Facebook Follow gcmap on Twitter Follow gcmap on Google+ GCmap on LinkedIn

hCard Microformat

Geo Microformat